User: anonymous   Login
Location: American Medical Response
(33.3472°N, 96.5511°W)
Time: 17:31:56
(UTC+00:00)
Language:

COSMOS 2537 - Orbit

View from above orbital plane
View from above orbital plane
View from above satellite
View from above satellite

Ground track
Ground track

The orbit data is extracted from the following two-line orbital elements,

1 44423U 19039C   22279.15332575  .00030197  00000-0  28234-2 0  9993
2 44423  97.7746 329.3569 0007752  30.3190 329.8510 14.94033214175791
Epoch (UTC): 06 October 2022 03:40:47
Eccentricity: 0.0007752
inclination: 97.7746°
perigee height: 580 km
apogee height: 591 km
right ascension of ascending node: 329.3569°
argument of perigee: 30.3190°
revolutions per day: 14.94033214
mean anomaly at epoch: 329.8510°
orbit number at epoch: 17579

The dashed part of the orbit path shows where the satellite is in the earth's shadow,  

DLR